Kejimkujik, Nova Scotia

3:45 PM ADT on July 26, 2017 (GMT -0300)
Kejimkujik

Weather History for CWKG - February, 2013

Change the Weather History Date:

Saturday, February 16, 2013

  Actual Average (CYZX) Record (CYZX)
Temperature  
Mean Temperature 38 °F -  
Max Temperature 46 °F 30 °F 55 °F (2016)
Min Temperature 30 °F 14 °F -4 °F (2003)
Degree Days  
Heating Degree Days 27    
Moisture  
Dew Point 32 °F    
Average Humidity 87    
Maximum Humidity 99    
Minimum Humidity 45    
Precipitation  
Precipitation 0.31 in - - ()
Sea Level Pressure  
Sea Level Pressure 29.92 in    
Wind  
Wind Speed 4 mph ()    
Max Wind Speed 10 mph    
Max Gust Speed 22 mph    
Averages and records for this station are not official NWS values.
T = Trace of Precipitation, MM = Missing Value Source: Averaged Metar Reports

Daily Weather History Graph

Daily Weather History Graph

Search for Another Location

Airport or City:

Trip Planner

Search our weather history database for the weather conditions in past years. The results will help you decide how hot, cold, wet, or windy it might be!

Date:

Astronomy

Feb. 16, 2013 Rise Set
Actual Time 7:18 AM AST 5:51 PM AST
Civil Twilight 6:49 AM AST 6:21 PM AST
Nautical Twilight 6:15 AM AST 6:55 PM AST
Astronomical Twilight 5:41 AM AST 7:28 PM AST
Moon 10:12 AM AST (2/16) 12:03 AM AST (2/16)
Length of Visible Light 11h 32m
Length of Day
10h 32m
Waxing Crescent, 39% of the Moon is Illuminated
Feb 16
Waxing Crescent
Feb 17
First Quarter
Feb 25
Full
Mar 4
Last Quarter
Mar 11
New

Hourly Weather History & Observations

Time (AST) Temp. Windchill Dew Point Humidity Pressure Visibility Wind Dir Wind Speed Gust Speed Precip Events Conditions
12:00 AM 30.9 °F 27.5 °F 29.7 °F 95% 30.03 in - SW 3.5 mph - N/A   Unknown
1:00 AM 30.9 °F 27.5 °F 29.5 °F 94% 30.03 in - SSE 3.5 mph - N/A   Unknown
2:00 AM 31 °F - 30 °F 93% 30.03 in - SSE 4.6 mph - -  
2:00 AM 31.5 °F 26.8 °F 29.8 °F 94% 30.03 in - SSE 4.6 mph - N/A   Unknown
3:00 AM 31.5 °F 26.8 °F 31.1 °F 99% 30.01 in - SSE 4.6 mph - N/A   Unknown
4:00 AM 31.8 °F - 30.6 °F 95% 30.00 in - SE 2.3 mph - N/A   Unknown
5:00 AM 31.8 °F - 30.4 °F 94% 29.99 in - SE 2.3 mph - N/A   Unknown
6:00 AM 31.1 °F - 30.0 °F 96% 29.99 in - SE 2.3 mph - N/A   Unknown
7:00 AM 30.9 °F 26.2 °F 30.0 °F 96% 29.98 in - SE 4.6 mph - N/A   Unknown
8:00 AM 31 °F - 31 °F 97% 29.99 in - SE 4.6 mph - -  
8:00 AM 31.1 °F 26.4 °F 30.6 °F 98% 29.99 in - SE 4.6 mph - N/A   Unknown
9:00 AM 33.4 °F 29.1 °F 33.1 °F 99% 29.99 in - South 4.6 mph - N/A   Unknown
10:00 AM 36.3 °F 31.6 °F 34.2 °F 92% 29.99 in - SSE 5.8 mph - N/A   Unknown
11:00 AM 38.7 °F 34.3 °F 34.7 °F 86% 29.98 in - South 5.8 mph - N/A   Unknown
12:00 PM 43.9 °F 39.9 °F 33.4 °F 67% 29.95 in - SSE 6.9 mph - N/A   Unknown
1:00 PM 45.0 °F 40.1 °F 32.9 °F 63% 29.91 in - SSE 9.2 mph - N/A   Unknown
2:00 PM 46 °F - 32 °F 45% 29.89 in - South 10.4 mph - -  
2:00 PM 46.0 °F 41.0 °F 31.6 °F 57% 29.89 in - South 10.4 mph 21.9 mph N/A   Unknown
3:00 PM 43.0 °F 38.8 °F 33.6 °F 70% - - South 6.9 mph - N/A   Unknown
4:00 PM 41.5 °F 37.8 °F 31.6 °F 68% 29.88 in - South 5.8 mph - N/A   Unknown
5:00 PM 39.7 °F 35.6 °F 31.5 °F 72% 29.87 in - SE 5.8 mph - N/A   Unknown
6:00 PM 37.4 °F 32.8 °F 35.2 °F 92% 29.86 in - SE 5.8 mph - N/A   Unknown
7:00 PM 36.5 °F 31.8 °F 34.7 °F 93% 29.84 in - ESE 5.8 mph - N/A   Unknown
8:00 PM 36 °F - 34 °F 87% 29.80 in - ESE 6.9 mph - -  
8:00 PM 35.6 °F 29.9 °F 33.6 °F 92% 29.80 in - ESE 6.9 mph - N/A   Unknown
9:00 PM 34.9 °F 29.0 °F 34.0 °F 97% 29.78 in - ESE 6.9 mph - N/A   Unknown
10:00 PM 34.7 °F 29.6 °F 34.2 °F 98% 29.75 in - ESE 5.8 mph - N/A   Unknown
11:00 PM 34.9 °F 29.9 °F 34.5 °F 99% 29.72 in - East 5.8 mph - N/A   Unknown